Weather History for Tekamah, NE

Change the Weather History Date:

Friday, March 1, 2013

  Actual Average Record
Temperature  
Mean Temperature 27 °F -  
Max Temperature 30 °F 44 °F 73 °F (2006)
Min Temperature 24 °F 21 °F -16 °F (1962)
Degree Days  
Heating Degree Days 38    
Moisture  
Dew Point 18 °F    
Average Humidity 71    
Maximum Humidity 80    
Minimum Humidity 60    
Precipitation  
Precipitation 0.00 in - - ()
Sea Level Pressure  
Sea Level Pressure 30.32 in    
Wind  
Wind Speed 14 mph (NNW)    
Max Wind Speed 25 mph    
Max Gust Speed 24 mph    
Visibility 8 miles    
Events Snow    
Averages and records for this station are not official NWS values.
T = Trace of Precipitation, MM = Missing Value Source: NWS Daily Summary

Daily Weather History Graph

Daily Weather History Graph

Search for Another Location

Airport:

Trip Planner

Search our weather history database for the weather conditions in past years. The results will help you decide how hot, cold, wet, or windy it might be!

Date:

Astronomy

Mar. 01, 2013 Rise Set
Actual Time 6:59 AM CST 6:15 PM CST
Civil Twilight 6:31 AM CST 6:43 PM CST
Nautical Twilight 5:59 AM CST 7:15 PM CST
Astronomical Twilight 5:26 AM CST 7:47 PM CST
Moon 10:55 PM CST 8:42 AM CST
Length of Visible Light 12h 12m
Length of Day
11h 16m
Waning Gibbous, 83% of the Moon is Illuminated
Mar 1
Waning Gibbous
Mar 4
Last Quarter
Mar 11
New
Mar 19
First Quarter
Mar 27
Full

Hourly Weather History & Observations

Time (CST) Temp. Windchill Dew Point Humidity Pressure Visibility Wind Dir Wind Speed Gust Speed Precip Events Conditions
12:54 AM 27.0 °F 15.6 °F 19.0 °F 72% 30.26 in 10.0 mi North 13.8 mph - N/A   Overcast
1:54 AM 26.1 °F 16.2 °F 19.9 °F 78% 30.26 in 8.0 mi NNW 10.4 mph - N/A   Overcast
3:54 AM 26.1 °F 14.5 °F 19.0 °F 75% 30.26 in 8.0 mi NW 13.8 mph - N/A   Overcast
4:54 AM 25.0 °F 13.1 °F 19.0 °F 78% 30.26 in 9.0 mi NW 13.8 mph - N/A   Overcast
5:54 AM 25.0 °F 13.1 °F 19.0 °F 78% 30.27 in 9.0 mi NW 13.8 mph - N/A   Overcast
6:52 AM 24.8 °F 12.9 °F 17.6 °F 74% 30.25 in 7.0 mi NW 13.8 mph - N/A   Overcast
6:54 AM 24.1 °F 12.0 °F 18.0 °F 77% 30.28 in 7.0 mi NNW 13.8 mph - N/A   Overcast
7:24 AM 24.8 °F 12.9 °F 19.4 °F 80% 30.27 in 7.0 mi NNW 13.8 mph - N/A   Overcast
8:20 AM 24.8 °F 13.4 °F 19.4 °F 80% 30.28 in 2.0 mi NNW 12.7 mph - 0.00 in Snow Light Snow
8:28 AM 24.8 °F 12.9 °F 19.4 °F 80% 30.29 in 1.8 mi NNW 13.8 mph - 0.00 in Snow Light Snow
8:51 AM 26.6 °F 15.7 °F 19.4 °F 74% 30.29 in 2.0 mi NNW 12.7 mph - 0.00 in Snow Light Snow
8:54 AM 26.1 °F 16.2 °F 19.9 °F 78% 30.32 in 2.5 mi NNW 10.4 mph - 0.00 in Snow Light Snow
9:04 AM 26.6 °F 16.2 °F 19.4 °F 74% 30.29 in 4.0 mi NNW 11.5 mph - 0.00 in   Haze
9:54 AM 28.0 °F 15.3 °F 19.9 °F 72% 30.32 in 7.0 mi North 18.4 mph - 0.00 in   Overcast
10:54 AM 30.0 °F 18.3 °F 19.0 °F 64% 30.32 in 9.0 mi North 17.3 mph - N/A   Overcast
11:54 AM 28.9 °F 16.5 °F 19.0 °F 67% 30.33 in 9.0 mi North 18.4 mph - N/A   Overcast
12:47 PM 30.2 °F 16.2 °F 17.6 °F 60% 30.30 in 10.0 mi North 25.3 mph - N/A   Mostly Cloudy
12:54 PM 28.9 °F 16.1 °F 18.0 °F 64% 30.33 in 10.0 mi North 19.6 mph - N/A   Overcast
1:08 PM 28.4 °F 15.8 °F 17.6 °F 64% 30.30 in 10.0 mi North 18.4 mph - N/A   Overcast
1:54 PM 30.0 °F 19.1 °F 18.0 °F 61% 30.32 in 10.0 mi North 15.0 mph 24.2 mph N/A   Overcast
2:52 PM 28.4 °F 16.2 °F 17.6 °F 64% 30.30 in 10.0 mi North 17.3 mph - N/A   Overcast
2:54 PM 28.9 °F 17.7 °F 18.0 °F 64% 30.33 in 10.0 mi North 15.0 mph - N/A   Overcast
3:54 PM 28.0 °F 16.5 °F 18.0 °F 66% 30.33 in 10.0 mi North 15.0 mph - N/A   Overcast
4:54 PM 28.0 °F 16.1 °F 17.1 °F 63% 30.35 in 10.0 mi North 16.1 mph - N/A   Overcast
5:54 PM 27.0 °F 16.7 °F 18.0 °F 69% 30.37 in 10.0 mi North 11.5 mph - N/A   Overcast
6:54 PM 26.1 °F 15.6 °F 17.1 °F 69% 30.39 in 10.0 mi North 11.5 mph - N/A   Overcast
7:54 PM 26.1 °F 15.6 °F 17.1 °F 69% 30.40 in 10.0 mi North 11.5 mph - N/A   Overcast
8:54 PM 25.0 °F 14.8 °F 17.1 °F 72% 30.40 in 10.0 mi North 10.4 mph - N/A   Overcast
9:54 PM 25.0 °F 14.2 °F 15.1 °F 66% 30.41 in 10.0 mi North 11.5 mph - N/A   Overcast
10:54 PM 24.1 °F 16.0 °F 16.0 °F 71% 30.40 in 10.0 mi North 6.9 mph - N/A   Overcast
11:54 PM 24.1 °F 15.2 °F 16.0 °F 71% 30.39 in 10.0 mi North 8.1 mph - N/A   Overcast